"Pseudo-MPEC" for X81088

Created 2023 Feb 21 16:22:07 UT using Find_Orb

Click here for an explanation of pseudo-MPECs

 
 Astrometry: 
     X81088 * C2023 01 27cDc/IAstrometryo$8)cslna0411M=Vky@UvsiN\glEredacted;D29
     X81088   C2023 01 276aJ)Dgk[=USQfdY]@JytD.J=QS?EEclick/`I8*6oOK2*$herephD29
     X81088   C2023 01 27wSc!-7E;acm:cf9.uyX4^n)forgtorexplanationx3Bg0P*1]AWD29

Station data:
(D29) Purple Mountain Observatory, XuYi Station  (N32.734363 E118.463900)
   China.  Observers H. B. Zhao, B. Li, G. Zhaori, R. Q. Hong, L. F. Hu.
   Measurers H. B. Zhao, B. Li. H. Lu, G. Zhaori. 1.04-m f/1.8 Schmidt + CCD.

Orbital elements:  X81088
   Perihelion 2022 Dec 30.33824 +/- 46.3 TT =  8:07:04 (JD 2459943.83824)
Epoch 2023 Jan 28.0 TT = JDT 2459972.5   Earth MOID: 0.3138   Ma: 0.0187
M   8.42352482 +/- 25               (J2000 ecliptic)             AutoNEOCP
n   0.29389420 +/- 0.308            Peri.   50.71974 +/- 100
a   2.24048498 +/- 1.57             Node    61.25406 +/- 46
e   0.4257292 +/- 0.248             Incl.    5.40916 +/- 7
P   3.35                   H 22.31  G  0.15   U 12.0  SR
q 1.28664508 +/- 0.526    Q 3.19432488 +/- 68.2
From 3 observations 2023 Jan. 27 (48.4 min); mean residual 0".30
Residuals in arcseconds: 
230127 D29  .29+  .10+    230127 D29  .59-  .20-    230127 D29  .26+  .10+    

Ephemerides (geocentric):
Date (UTC) HH   RA             Dec           delta  r     elong  mag " sig PA
---- --------  ------------   ------------  ------ ------ -----  --- --------
2023 02 21 16  10 52 27.191   +27 10 02.68  .41367 1.3875 161.5 21.9  76d   5
2023 02 21 17  10 52 25.792   +27 09 54.27  .41380 1.3877 161.5 21.9  76d   5
2023 02 21 18  10 52 24.392   +27 09 45.82  .41393 1.3878 161.5 21.9  76d   5
2023 02 21 19  10 52 22.991   +27 09 37.32  .41406 1.3880 161.5 21.9  76d   5
2023 02 21 20  10 52 21.589   +27 09 28.78  .41419 1.3881 161.6 21.9  76d   5
2023 02 21 21  10 52 20.187   +27 09 20.19  .41432 1.3883 161.6 21.9  76d   5
2023 02 21 22  10 52 18.783   +27 09 11.57  .41445 1.3884 161.6 21.9  76d   5
2023 02 21 23  10 52 17.379   +27 09 02.90  .41458 1.3886 161.6 21.9  76d   5
2023 02 22 00  10 52 15.974   +27 08 54.18  .41472 1.3887 161.6 21.9  76d   5
2023 02 22 01  10 52 14.568   +27 08 45.43  .41485 1.3889 161.6 21.9  76d   5
2023 02 22 02  10 52 13.161   +27 08 36.63  .41498 1.3890 161.6 21.9  76d   5
2023 02 22 03  10 52 11.754   +27 08 27.79  .41511 1.3892 161.6 21.9  76d   5
2023 02 22 04  10 52 10.345   +27 08 18.90  .41524 1.3893 161.6 21.9  76d   5
2023 02 22 05  10 52 08.936   +27 08 09.98  .41538 1.3895 161.6 21.9  76d   5
2023 02 22 06  10 52 07.527   +27 08 01.01  .41551 1.3896 161.6 21.9  76d   5
2023 02 22 07  10 52 06.116   +27 07 51.99  .41564 1.3898 161.6 21.9  76d   5
2023 02 22 08  10 52 04.705   +27 07 42.94  .41578 1.3899 161.6 21.9  76d   5
2023 02 22 09  10 52 03.293   +27 07 33.84  .41591 1.3901 161.6 21.9  77d   5
2023 02 22 10  10 52 01.880   +27 07 24.69  .41604 1.3902 161.6 21.9  77d   5
2023 02 22 11  10 52 00.467   +27 07 15.51  .41618 1.3904 161.6 21.9  77d   5
2023 02 22 12  10 51 59.053   +27 07 06.28  .41631 1.3905 161.7 21.9  77d   5
2023 02 22 13  10 51 57.639   +27 06 57.01  .41645 1.3907 161.7 21.9  77d   5
2023 02 22 14  10 51 56.224   +27 06 47.69  .41658 1.3908 161.7 21.9  77d   5
2023 02 22 15  10 51 54.808   +27 06 38.33  .41672 1.3909 161.7 21.9  77d   5
2023 02 22 16  10 51 53.391   +27 06 28.93  .41685 1.3911 161.7 21.9  77d   5
2023 02 22 17  10 51 51.974   +27 06 19.49  .41699 1.3912 161.7 21.9  77d   5
2023 02 22 18  10 51 50.557   +27 06 10.00  .41712 1.3914 161.7 21.9  77d   5
2023 02 22 19  10 51 49.139   +27 06 00.47  .41726 1.3915 161.7 21.9  77d   5
2023 02 22 20  10 51 47.720   +27 05 50.90  .41739 1.3917 161.7 21.9  77d   5
2023 02 22 21  10 51 46.301   +27 05 41.29  .41753 1.3918 161.7 21.9  77d   5
2023 02 22 22  10 51 44.881   +27 05 31.63  .41767 1.3920 161.7 21.9  77d   5
2023 02 22 23  10 51 43.461   +27 05 21.92  .41780 1.3921 161.7 21.9  77d   5
2023 02 23 00  10 51 42.040   +27 05 12.18  .41794 1.3923 161.7 21.9  77d   5
2023 02 23 01  10 51 40.619   +27 05 02.39  .41808 1.3924 161.7 21.9  77d   5
2023 02 23 02  10 51 39.197   +27 04 52.56  .41822 1.3926 161.7 21.9  77d   5
2023 02 23 03  10 51 37.775   +27 04 42.69  .41836 1.3927 161.7 21.9  77d   5
2023 02 23 04  10 51 36.352   +27 04 32.77  .41849 1.3929 161.7 21.9  77d   6
2023 02 23 05  10 51 34.929   +27 04 22.81  .41863 1.3930 161.7 21.9  77d   6
2023 02 23 06  10 51 33.506   +27 04 12.81  .41877 1.3932 161.7 21.9  77d   6
2023 02 23 07  10 51 32.082   +27 04 02.76  .41891 1.3933 161.7 21.9  77d   6
2023 02 23 08  10 51 30.658   +27 03 52.67  .41905 1.3935 161.7 21.9  77d   6
2023 02 23 09  10 51 29.233   +27 03 42.54  .41919 1.3937 161.7 21.9  78d   6
2023 02 23 10  10 51 27.808   +27 03 32.37  .41933 1.3938 161.8 21.9  78d   6
2023 02 23 11  10 51 26.382   +27 03 22.15  .41947 1.3940 161.8 21.9  78d   6
2023 02 23 12  10 51 24.957   +27 03 11.89  .41961 1.3941 161.8 21.9  78d   6
2023 02 23 13  10 51 23.531   +27 03 01.58  .41975 1.3943 161.8 21.9  78d   6
2023 02 23 14  10 51 22.104   +27 02 51.24  .41989 1.3944 161.8 21.9  78d   6
2023 02 23 15  10 51 20.677   +27 02 40.85  .42003 1.3946 161.8 22.0  78d   6